{"data":{"norad_id":63968,"epoch":"2026-05-25T03:41:31.090848Z","epoch_age_seconds":51988,"freshness":"FRESH","line1":"1 63968U 25099S   26145.15383207  .00014251  00000+0  52616-3 0  9999","line2":"2 63968  43.0004 104.1125 0001068 252.5495 107.5240 15.27594222 59031","mean_motion":15.27594222,"eccentricity":0.0001068,"inclination_deg":43.0004,"raan_deg":104.1125,"arg_perigee_deg":252.5495,"mean_anomaly_deg":107.524,"bstar":0.00052616,"rev_number":5903,"period_min":94.265871084186,"perigee_km":482.27374045878,"apogee_km":483.73928071264,"semimajor_km":6861.1435105857,"source":"CELESTRAK","updated_at":"2026-05-25T13:38:20.214181Z"}}